Time,TemperatureF,DewpointF,PressureIn,WindDirection,WindDirectionDegrees,WindSpeedMPH,WindSpeedGustMPH,Humidity,HourlyPrecipIn,Conditions,Clouds,dailyrainin,SoftwareType,DateUTC
2013-02-16 00:00:00,23.9,15.9,30.05,NW,315,1.8,4.0,71,0.00,,,0.00,WUHU216HW,2013-02-16 05:00:00,
2013-02-16 00:05:00,24.1,16.0,30.05,NW,315,4.0,4.3,71,0.00,,,0.00,WUHU216HW,2013-02-16 05:05:00,
2013-02-16 00:10:00,24.1,16.0,30.05,WNW,293,2.5,4.7,71,0.00,,,0.00,WUHU216HW,2013-02-16 05:10:00,
2013-02-16 00:15:00,24.1,16.0,30.06,West,270,1.3,4.7,71,0.00,,,0.00,WUHU216HW,2013-02-16 05:15:00,
2013-02-16 00:20:00,24.1,16.0,30.06,NW,315,2.5,3.1,71,0.00,,,0.00,WUHU216HW,2013-02-16 05:20:00,
2013-02-16 00:23:00,24.1,16.0,30.06,NW,315,3.1,3.1,71,0.00,,,0.00,WUHU216HW,2013-02-16 05:23:00,
2013-02-16 00:28:00,24.1,16.0,30.05,WNW,293,2.5,4.3,71,0.00,,,0.00,WUHU216HW,2013-02-16 05:28:00,
2013-02-16 00:33:00,24.1,16.0,30.05,NW,315,3.1,4.3,71,0.00,,,0.00,WUHU216HW,2013-02-16 05:33:00,
2013-02-16 00:38:00,24.1,16.0,30.05,WNW,293,4.0,4.0,71,0.00,,,0.00,WUHU216HW,2013-02-16 05:38:00,
2013-02-16 00:43:00,24.1,16.0,30.05,NW,315,0.4,4.3,71,0.00,,,0.00,WUHU216HW,2013-02-16 05:43:00,
2013-02-16 00:48:00,24.3,16.2,30.05,WNW,293,3.4,4.5,71,0.00,,,0.00,WUHU216HW,2013-02-16 05:48:00,
2013-02-16 00:53:00,24.3,16.2,30.05,West,270,3.4,4.5,71,0.00,,,0.00,WUHU216HW,2013-02-16 05:53:00,
2013-02-16 00:58:00,24.3,16.2,30.05,WNW,293,3.6,5.4,71,0.00,,,0.00,WUHU216HW,2013-02-16 05:58:00,
2013-02-16 01:03:00,24.3,16.6,30.05,WSW,248,3.4,5.4,72,0.00,,,0.00,WUHU216HW,2013-02-16 06:03:00,
2013-02-16 01:08:00,24.5,16.4,30.05,WNW,293,2.9,3.8,71,0.00,,,0.00,WUHU216HW,2013-02-16 06:08:00,
2013-02-16 01:13:00,24.3,16.2,30.05,WNW,293,3.4,4.7,71,0.00,,,0.00,WUHU216HW,2013-02-16 06:13:00,
2013-02-16 01:18:00,24.3,16.2,30.05,WNW,293,2.5,4.7,71,0.00,,,0.00,WUHU216HW,2013-02-16 06:18:00,
2013-02-16 01:23:00,24.3,16.2,30.05,NNW,338,2.5,4.7,71,0.00,,,0.00,WUHU216HW,2013-02-16 06:23:00,
2013-02-16 01:28:00,24.3,16.2,30.05,NNW,338,2.5,4.7,71,0.00,,,0.00,WUHU216HW,2013-02-16 06:28:00,
2013-02-16 01:33:00,24.1,16.0,30.05,WNW,293,2.7,4.5,71,0.00,,,0.00,WUHU216HW,2013-02-16 06:33:00,
2013-02-16 01:38:00,24.1,16.4,30.05,NW,315,0.7,4.5,72,0.00,,,0.00,WUHU216HW,2013-02-16 06:38:00,
2013-02-16 01:43:00,24.1,16.4,30.05,WSW,248,1.1,3.8,72,0.00,,,0.00,WUHU216HW,2013-02-16 06:43:00,
2013-02-16 01:48:00,24.1,16.4,30.05,West,270,2.7,3.4,72,0.00,,,0.00,WUHU216HW,2013-02-16 06:48:00,
2013-02-16 01:53:00,24.1,16.4,30.05,NNW,338,1.8,4.0,72,0.00,,,0.00,WUHU216HW,2013-02-16 06:53:00,
2013-02-16 01:58:00,24.1,16.4,30.05,NNW,338,2.9,4.0,72,0.00,,,0.00,WUHU216HW,2013-02-16 06:58:00,
2013-02-16 02:03:00,23.9,16.2,30.05,NW,315,3.4,3.4,72,0.00,,,0.00,WUHU216HW,2013-02-16 07:03:00,
2013-02-16 02:08:00,23.9,16.2,30.05,NW,315,4.3,4.3,72,0.00,,,0.00,WUHU216HW,2013-02-16 07:08:00,
2013-02-16 02:13:00,23.9,16.2,30.05,NNW,338,0.4,4.3,72,0.00,,,0.00,WUHU216HW,2013-02-16 07:13:00,
2013-02-16 02:18:00,23.9,16.2,30.05,NNW,338,1.6,3.1,72,0.00,,,0.00,WUHU216HW,2013-02-16 07:18:00,
2013-02-16 02:23:00,23.9,16.2,30.05,NW,315,2.5,3.1,72,0.00,,,0.00,WUHU216HW,2013-02-16 07:23:00,
2013-02-16 02:28:00,24.1,16.4,30.05,NNW,338,0.9,2.9,72,0.00,,,0.00,WUHU216HW,2013-02-16 07:28:00,
2013-02-16 02:33:00,24.1,16.4,30.04,SW,225,1.3,2.9,72,0.00,,,0.00,WUHU216HW,2013-02-16 07:33:00,
2013-02-16 02:38:00,24.1,16.4,30.05,NNW,338,0.4,2.9,72,0.00,,,0.00,WUHU216HW,2013-02-16 07:38:00,
2013-02-16 02:43:00,24.1,16.4,30.05,NW,315,0.9,2.9,72,0.00,,,0.00,WUHU216HW,2013-02-16 07:43:00,
2013-02-16 02:48:00,23.9,16.2,30.05,NW,315,2.5,2.9,72,0.00,,,0.00,WUHU216HW,2013-02-16 07:48:00,
2013-02-16 02:53:00,24.1,16.4,30.05,WNW,293,2.2,2.9,72,0.00,,,0.00,WUHU216HW,2013-02-16 07:53:00,
2013-02-16 02:58:00,24.1,16.7,30.04,WNW,293,0.7,2.9,73,0.00,,,0.00,WUHU216HW,2013-02-16 07:58:00,
2013-02-16 03:03:00,24.1,16.7,30.04,WNW,293,0.9,1.8,73,0.00,,,0.00,WUHU216HW,2013-02-16 08:03:00,
2013-02-16 03:08:00,24.1,16.7,30.03,WNW,293,2.0,2.0,73,0.00,,,0.00,WUHU216HW,2013-02-16 08:08:00,
2013-02-16 03:13:00,24.1,16.7,30.03,WNW,293,1.1,2.0,73,0.00,,,0.00,WUHU216HW,2013-02-16 08:13:00,
2013-02-16 03:18:00,24.1,16.7,30.03,West,270,1.1,1.8,73,0.00,,,0.00,WUHU216HW,2013-02-16 08:18:00,
2013-02-16 03:23:00,24.1,16.7,30.03,WNW,293,1.1,2.0,73,0.00,,,0.00,WUHU216HW,2013-02-16 08:23:00,
2013-02-16 03:28:00,24.1,16.7,30.03,NW,315,1.8,2.0,73,0.00,,,0.00,WUHU216HW,2013-02-16 08:28:00,
2013-02-16 03:33:00,24.1,16.7,30.03,WNW,293,0.9,1.8,73,0.00,,,0.00,WUHU216HW,2013-02-16 08:33:00,
2013-02-16 03:38:00,24.1,16.7,30.03,NW,315,1.3,1.8,73,0.00,,,0.00,WUHU216HW,2013-02-16 08:38:00,
2013-02-16 03:43:00,24.1,16.7,30.03,WNW,293,1.3,2.2,73,0.00,,,0.00,WUHU216HW,2013-02-16 08:43:00,
2013-02-16 03:48:00,24.1,16.7,30.03,NW,315,2.9,2.9,73,0.00,,,0.00,WUHU216HW,2013-02-16 08:48:00,
2013-02-16 03:53:00,24.3,16.8,30.03,West,270,1.1,2.9,73,0.00,,,0.00,WUHU216HW,2013-02-16 08:53:00,
2013-02-16 03:58:00,24.1,16.7,30.03,WNW,293,1.6,2.7,73,0.00,,,0.00,WUHU216HW,2013-02-16 08:58:00,
2013-02-16 04:03:00,24.3,16.8,30.03,West,270,0.4,2.2,73,0.00,,,0.00,WUHU216HW,2013-02-16 09:03:00,
2013-02-16 04:08:00,24.3,16.8,30.03,West,270,0.9,1.3,73,0.00,,,0.00,WUHU216HW,2013-02-16 09:08:00,
2013-02-16 04:13:00,24.3,16.8,30.03,NW,315,1.8,2.0,73,0.00,,,0.00,WUHU216HW,2013-02-16 09:13:00,
2013-02-16 04:18:00,24.5,17.0,30.03,NW,315,1.3,2.5,73,0.00,,,0.00,WUHU216HW,2013-02-16 09:18:00,
2013-02-16 04:23:00,24.5,17.0,30.03,NW,315,2.5,2.5,73,0.00,,,0.00,WUHU216HW,2013-02-16 09:23:00,
2013-02-16 04:28:00,24.5,17.0,30.03,WNW,293,1.1,2.5,73,0.00,,,0.00,WUHU216HW,2013-02-16 09:28:00,
2013-02-16 04:33:00,24.5,17.0,30.03,WNW,293,1.8,2.5,73,0.00,,,0.00,WUHU216HW,2013-02-16 09:33:00,
2013-02-16 04:38:00,24.5,17.0,30.03,WNW,293,1.6,2.9,73,0.00,,,0.00,WUHU216HW,2013-02-16 09:38:00,
2013-02-16 04:43:00,24.5,17.0,30.03,West,270,0.7,2.9,73,0.00,,,0.00,WUHU216HW,2013-02-16 09:43:00,
2013-02-16 04:48:00,24.5,17.0,30.03,WNW,293,1.3,2.2,73,0.00,,,0.00,WUHU216HW,2013-02-16 09:48:00,
2013-02-16 04:53:00,24.5,17.0,30.03,WNW,293,0.9,1.6,73,0.00,,,0.00,WUHU216HW,2013-02-16 09:53:00,
2013-02-16 04:58:00,24.3,16.8,30.03,WNW,293,1.1,1.6,73,0.00,,,0.00,WUHU216HW,2013-02-16 09:58:00,
2013-02-16 05:03:00,24.3,16.8,30.03,WNW,293,0.7,1.8,73,0.00,,,0.00,WUHU216HW,2013-02-16 10:03:00,
2013-02-16 05:08:00,24.3,16.8,30.03,WNW,293,1.1,1.8,73,0.00,,,0.00,WUHU216HW,2013-02-16 10:08:00,
2013-02-16 05:13:00,24.3,16.8,30.03,WNW,293,0.4,1.1,73,0.00,,,0.00,WUHU216HW,2013-02-16 10:13:00,
2013-02-16 05:18:00,24.1,17.0,30.03,WSW,248,0.7,1.1,74,0.00,,,0.00,WUHU216HW,2013-02-16 10:18:00,
2013-02-16 05:23:00,23.9,16.5,30.02,South,180,1.1,2.0,73,0.00,,,0.00,WUHU216HW,2013-02-16 10:23:00,
2013-02-16 05:28:00,23.6,16.5,30.02,South,180,1.8,3.1,74,0.00,,,0.00,WUHU216HW,2013-02-16 10:28:00,
2013-02-16 05:33:00,23.4,16.3,30.03,WSW,248,0.9,3.1,74,0.00,,,0.00,WUHU216HW,2013-02-16 10:33:00,
2013-02-16 05:38:00,23.2,16.1,30.03,SSW,203,0.7,1.3,74,0.00,,,0.00,WUHU216HW,2013-02-16 10:38:00,
2013-02-16 05:43:00,23.0,16.3,30.03,SSW,203,0.9,1.8,75,0.00,,,0.00,WUHU216HW,2013-02-16 10:43:00,
2013-02-16 05:48:00,22.9,16.1,30.03,SW,225,1.8,1.8,75,0.00,,,0.00,WUHU216HW,2013-02-16 10:48:00,
2013-02-16 05:53:00,22.7,15.9,30.03,SW,225,1.1,1.8,75,0.00,,,0.00,WUHU216HW,2013-02-16 10:53:00,
2013-02-16 05:58:00,22.5,15.8,30.03,South,180,0.4,1.1,75,0.00,,,0.00,WUHU216HW,2013-02-16 10:58:00,
2013-02-16 06:03:00,22.5,15.8,30.03,WSW,248,0.9,1.1,75,0.00,,,0.00,WUHU216HW,2013-02-16 11:03:00,
2013-02-16 06:08:00,22.3,15.6,30.02,SSW,203,0.4,1.8,75,0.00,,,0.00,WUHU216HW,2013-02-16 11:08:00,
2013-02-16 06:13:00,22.3,15.8,30.02,SSW,203,0.0,1.8,76,0.00,,,0.00,WUHU216HW,2013-02-16 11:13:00,
2013-02-16 06:18:00,22.3,15.8,30.02,SSE,158,0.0,0.4,76,0.00,,,0.00,WUHU216HW,2013-02-16 11:18:00,
2013-02-16 06:23:00,22.5,16.0,30.02,South,180,0.0,0.4,76,0.00,,,0.00,WUHU216HW,2013-02-16 11:23:00,
2013-02-16 06:28:00,22.5,16.0,30.02,SSW,203,0.4,0.4,76,0.00,,,0.00,WUHU216HW,2013-02-16 11:28:00,
2013-02-16 06:33:00,22.5,16.0,30.02,WSW,248,0.0,1.1,76,0.00,,,0.00,WUHU216HW,2013-02-16 11:33:00,
2013-02-16 06:38:00,22.7,16.2,30.02,South,180,0.7,1.8,76,0.00,,,0.00,WUHU216HW,2013-02-16 11:38:00,
2013-02-16 06:43:00,22.7,16.6,30.02,South,180,0.9,1.8,77,0.00,,,0.00,WUHU216HW,2013-02-16 11:43:00,
2013-02-16 06:48:00,22.7,16.6,30.02,SSE,158,1.3,1.3,77,0.00,,,0.00,WUHU216HW,2013-02-16 11:48:00,
2013-02-16 06:53:00,22.9,16.8,30.02,SSW,203,1.1,1.3,77,0.00,,,0.00,WUHU216HW,2013-02-16 11:53:00,
2013-02-16 06:58:00,23.0,16.9,30.02,SSW,203,1.6,1.6,77,0.00,,,0.00,WUHU216HW,2013-02-16 11:58:00,
2013-02-16 07:03:00,23.0,16.9,30.01,South,180,1.6,3.4,77,0.00,,,0.00,WUHU216HW,2013-02-16 12:03:00,
2013-02-16 07:08:00,23.0,16.6,30.02,SW,225,1.6,3.4,76,0.00,,,0.00,WUHU216HW,2013-02-16 12:08:00,
2013-02-16 07:13:00,23.0,16.6,30.02,SSW,203,3.4,3.4,76,0.00,,,0.00,WUHU216HW,2013-02-16 12:13:00,
2013-02-16 07:18:00,23.0,16.6,30.02,South,180,2.5,3.6,76,0.00,,,0.00,WUHU216HW,2013-02-16 12:18:00,
2013-02-16 07:23:00,22.9,16.4,30.02,WSW,248,2.5,3.6,76,0.00,,,0.00,WUHU216HW,2013-02-16 12:23:00,
2013-02-16 07:28:00,22.9,16.4,30.01,SE,135,2.5,3.4,76,0.00,,,0.00,WUHU216HW,2013-02-16 12:28:00,
2013-02-16 07:33:00,22.9,16.4,30.01,SSE,158,1.8,3.4,76,0.00,,,0.00,WUHU216HW,2013-02-16 12:33:00,
2013-02-16 07:38:00,23.0,16.6,30.01,South,180,0.7,3.1,76,0.00,,,0.00,WUHU216HW,2013-02-16 12:38:00,
2013-02-16 07:43:00,22.9,16.4,30.01,SW,225,1.1,2.0,76,0.00,,,0.00,WUHU216HW,2013-02-16 12:43:00,
2013-02-16 07:48:00,23.0,16.6,30.02,WSW,248,1.6,2.7,76,0.00,,,0.00,WUHU216HW,2013-02-16 12:48:00,
2013-02-16 07:53:00,23.0,16.6,30.02,SSW,203,1.8,2.7,76,0.00,,,0.00,WUHU216HW,2013-02-16 12:53:00,
2013-02-16 07:58:00,23.0,16.6,30.02,SW,225,2.0,2.9,76,0.00,,,0.00,WUHU216HW,2013-02-16 12:58:00,
2013-02-16 08:03:00,23.0,16.6,30.02,West,270,2.0,2.9,76,0.00,,,0.00,WUHU216HW,2013-02-16 13:03:00,
2013-02-16 08:08:00,23.2,16.7,30.02,SW,225,2.5,2.5,76,0.00,,,0.00,WUHU216HW,2013-02-16 13:08:00,
2013-02-16 08:13:00,23.6,17.1,30.02,SSE,158,1.1,2.5,76,0.00,,,0.00,WUHU216HW,2013-02-16 13:13:00,
2013-02-16 08:18:00,23.9,17.5,30.02,WSW,248,4.0,4.0,76,0.00,,,0.00,WUHU216HW,2013-02-16 13:18:00,
2013-02-16 08:23:00,24.3,17.8,30.02,SSE,158,1.6,5.8,76,0.00,,,0.00,WUHU216HW,2013-02-16 13:23:00,
2013-02-16 08:28:00,24.7,18.2,30.02,SW,225,1.1,5.8,76,0.00,,,0.00,WUHU216HW,2013-02-16 13:28:00,
2013-02-16 08:33:00,25.0,18.2,30.02,SW,225,3.8,3.8,75,0.00,,,0.00,WUHU216HW,2013-02-16 13:33:00,
2013-02-16 08:38:00,25.4,18.6,30.02,WSW,248,2.0,3.8,75,0.00,,,0.00,WUHU216HW,2013-02-16 13:38:00,
2013-02-16 08:43:00,25.6,18.7,30.01,SSW,203,2.0,3.8,75,0.00,,,0.00,WUHU216HW,2013-02-16 13:43:00,
2013-02-16 08:48:00,25.9,19.0,30.01,SW,225,2.0,3.4,75,0.00,,,0.00,WUHU216HW,2013-02-16 13:48:00,
2013-02-16 08:53:00,26.1,18.9,30.01,WNW,293,4.3,4.3,74,0.00,,,0.00,WUHU216HW,2013-02-16 13:53:00,
2013-02-16 08:58:00,26.5,18.9,30.02,SSW,203,1.8,4.3,73,0.00,,,0.00,WUHU216HW,2013-02-16 13:58:00,
2013-02-16 09:03:00,26.6,19.1,30.02,SW,225,0.9,3.4,73,0.00,,,0.00,WUHU216HW,2013-02-16 14:03:00,
2013-02-16 09:08:00,27.0,19.2,30.02,West,270,2.2,4.0,72,0.00,,,0.00,WUHU216HW,2013-02-16 14:08:00,
2013-02-16 09:13:00,27.2,19.4,30.02,West,270,2.9,4.3,72,0.00,,,0.00,WUHU216HW,2013-02-16 14:13:00,
2013-02-16 09:18:00,27.4,19.5,30.02,SW,225,3.8,4.3,72,0.00,,,0.00,WUHU216HW,2013-02-16 14:18:00,
2013-02-16 09:23:00,27.5,19.7,30.02,West,270,2.5,3.8,72,0.00,,,0.00,WUHU216HW,2013-02-16 14:23:00,
2013-02-16 09:28:00,27.7,19.5,30.02,South,180,2.2,4.0,71,0.00,,,0.00,WUHU216HW,2013-02-16 14:28:00,
2013-02-16 09:33:00,27.7,19.5,30.02,NW,315,1.6,4.0,71,0.00,,,0.00,WUHU216HW,2013-02-16 14:33:00,
2013-02-16 09:38:00,28.1,19.6,30.02,West,270,2.9,3.6,70,0.00,,,0.00,WUHU216HW,2013-02-16 14:38:00,
2013-02-16 09:43:00,28.4,20.0,30.02,NNW,338,4.0,4.3,70,0.00,,,0.00,WUHU216HW,2013-02-16 14:43:00,
2013-02-16 09:48:00,28.4,19.6,30.01,NW,315,3.1,4.7,69,0.00,,,0.00,WUHU216HW,2013-02-16 14:48:00,
2013-02-16 09:53:00,28.8,19.6,30.01,WNW,293,3.8,4.7,68,0.00,,,0.00,WUHU216HW,2013-02-16 14:53:00,
2013-02-16 09:58:00,28.8,19.3,30.01,SW,225,0.7,4.0,67,0.00,,,0.00,WUHU216HW,2013-02-16 14:58:00,
2013-02-16 10:03:00,29.2,19.2,30.01,NW,315,4.3,4.3,66,0.00,,,0.00,WUHU216HW,2013-02-16 15:03:00,
2013-02-16 10:08:00,29.3,19.4,30.01,West,270,3.4,6.3,66,0.00,,,0.00,WUHU216HW,2013-02-16 15:08:00,
2013-02-16 10:13:00,29.5,19.5,30.01,NNW,338,0.4,6.3,66,0.00,,,0.00,WUHU216HW,2013-02-16 15:13:00,
2013-02-16 10:18:00,29.9,19.8,30.01,West,270,1.3,6.7,66,0.00,,,0.00,WUHU216HW,2013-02-16 15:18:00,
2013-02-16 10:23:00,30.2,20.2,30.01,NNW,338,2.5,6.7,66,0.00,,,0.00,WUHU216HW,2013-02-16 15:23:00,
2013-02-16 10:28:00,30.2,19.8,30.01,NNE,23,0.4,4.3,65,0.00,,,0.00,WUHU216HW,2013-02-16 15:28:00,
2013-02-16 10:33:00,30.1,19.3,30.00,WNW,293,0.9,2.9,64,0.00,,,0.00,WUHU216HW,2013-02-16 15:33:00,
2013-02-16 10:38:00,30.1,19.3,30.00,South,180,0.4,2.9,64,0.00,,,0.00,WUHU216HW,2013-02-16 15:38:00,
2013-02-16 10:43:00,29.9,19.1,30.00,WNW,293,2.7,2.7,64,0.00,,,0.00,WUHU216HW,2013-02-16 15:43:00,
2013-02-16 10:48:00,29.9,19.1,30.00,South,180,1.8,2.7,64,0.00,,,0.00,WUHU216HW,2013-02-16 15:48:00,
2013-02-16 10:53:00,29.9,19.1,30.00,SSW,203,0.4,2.7,64,0.00,,,0.00,WUHU216HW,2013-02-16 15:53:00,
2013-02-16 10:58:00,29.9,19.1,29.99,SSW,203,0.7,2.7,64,0.00,,,0.00,WUHU216HW,2013-02-16 15:58:00,
2013-02-16 11:03:00,30.2,19.4,29.99,South,180,1.1,1.8,64,0.00,,,0.00,WUHU216HW,2013-02-16 16:03:00,
2013-02-16 11:08:00,30.4,19.3,29.99,WNW,293,2.5,2.5,63,0.00,,,0.00,WUHU216HW,2013-02-16 16:08:00,
2013-02-16 11:13:00,30.4,19.3,29.99,NNW,338,4.0,4.0,63,0.00,,,0.00,WUHU216HW,2013-02-16 16:13:00,
2013-02-16 11:18:00,30.4,18.9,29.99,NW,315,3.4,4.0,62,0.00,,,0.00,WUHU216HW,2013-02-16 16:18:00,
2013-02-16 11:23:00,30.4,18.9,29.99,North,0,0.4,3.4,62,0.00,,,0.00,WUHU216HW,2013-02-16 16:23:00,
2013-02-16 11:28:00,30.2,18.7,29.99,North,0,0.9,2.0,62,0.00,,,0.00,WUHU216HW,2013-02-16 16:28:00,
2013-02-16 11:33:00,30.1,18.2,29.99,West,270,2.0,2.0,61,0.00,,,0.00,WUHU216HW,2013-02-16 16:33:00,
2013-02-16 11:38:00,30.2,18.4,29.98,WNW,293,1.8,4.0,61,0.00,,,0.00,WUHU216HW,2013-02-16 16:38:00,
2013-02-16 11:43:00,30.6,18.7,29.98,WNW,293,1.1,4.0,61,0.00,,,0.00,WUHU216HW,2013-02-16 16:43:00,
2013-02-16 11:48:00,30.6,18.7,29.98,WSW,248,2.5,3.8,61,0.00,,,0.00,WUHU216HW,2013-02-16 16:48:00,
2013-02-16 11:53:00,30.8,18.9,29.98,NW,315,3.4,3.8,61,0.00,,,0.00,WUHU216HW,2013-02-16 16:53:00,
2013-02-16 11:58:00,31.0,18.7,29.98,NNW,338,1.6,3.8,60,0.00,,,0.00,WUHU216HW,2013-02-16 16:58:00,
2013-02-16 12:03:00,31.0,18.3,29.98,NNW,338,1.8,2.9,59,0.00,,,0.00,WUHU216HW,2013-02-16 17:03:00,
2013-02-16 12:08:00,30.8,18.1,29.98,West,270,1.1,1.8,59,0.00,,,0.00,WUHU216HW,2013-02-16 17:08:00,
2013-02-16 12:13:00,31.3,18.6,29.97,SW,225,0.0,3.4,59,0.00,,,0.00,WUHU216HW,2013-02-16 17:13:00,
2013-02-16 12:18:00,31.7,19.0,29.97,ESE,113,0.0,3.4,59,0.00,,,0.00,WUHU216HW,2013-02-16 17:18:00,
2013-02-16 12:23:00,32.2,19.1,29.97,North,0,0.4,2.5,58,0.00,,,0.00,WUHU216HW,2013-02-16 17:23:00,
2013-02-16 12:28:00,32.6,19.0,29.97,NNW,338,1.1,2.5,57,0.00,,,0.00,WUHU216HW,2013-02-16 17:28:00,
2013-02-16 12:33:00,32.6,19.0,29.97,NW,315,2.2,3.4,57,0.00,,,0.00,WUHU216HW,2013-02-16 17:33:00,
2013-02-16 12:38:00,32.6,19.0,29.96,West,270,0.7,3.8,57,0.00,,,0.00,WUHU216HW,2013-02-16 17:38:00,
2013-02-16 12:43:00,32.8,19.2,29.96,NW,315,0.2,3.8,57,0.00,,,0.00,WUHU216HW,2013-02-16 17:43:00,
2013-02-16 12:48:00,33.1,19.1,29.96,SSW,203,1.6,4.5,56,0.00,,,0.00,WUHU216HW,2013-02-16 17:48:00,
2013-02-16 12:53:00,32.9,18.9,29.96,West,270,2.5,4.5,56,0.00,,,0.00,WUHU216HW,2013-02-16 17:53:00,
2013-02-16 12:58:00,32.8,18.7,29.96,NNE,23,0.2,3.1,56,0.00,,,0.00,WUHU216HW,2013-02-16 17:58:00,
2013-02-16 13:03:00,32.8,18.7,29.95,WNW,293,3.1,3.1,56,0.00,,,0.00,WUHU216HW,2013-02-16 18:03:00,
2013-02-16 13:08:00,32.8,18.7,29.95,NW,315,2.9,3.6,56,0.00,,,0.00,WUHU216HW,2013-02-16 18:08:00,
2013-02-16 13:13:00,32.8,18.7,29.95,WNW,293,6.3,6.3,56,0.00,,,0.00,WUHU216HW,2013-02-16 18:13:00,
2013-02-16 13:18:00,32.6,18.5,29.95,NW,315,1.1,6.3,56,0.00,,,0.00,WUHU216HW,2013-02-16 18:18:00,
2013-02-16 13:23:00,32.4,18.4,29.95,WNW,293,1.8,6.3,56,0.00,,,0.00,WUHU216HW,2013-02-16 18:23:00,
2013-02-16 13:28:00,32.6,18.5,29.95,NNW,338,2.5,4.9,56,0.00,,,0.00,WUHU216HW,2013-02-16 18:28:00,
2013-02-16 13:33:00,32.2,18.3,29.95,North,0,1.1,4.9,56,0.00,,,0.00,WUHU216HW,2013-02-16 18:33:00,
2013-02-16 13:38:00,32.0,18.1,29.94,NNW,338,1.3,4.0,56,0.00,,,0.00,WUHU216HW,2013-02-16 18:38:00,
2013-02-16 13:43:00,32.2,18.3,29.94,NW,315,2.2,3.4,56,0.00,,,0.00,WUHU216HW,2013-02-16 18:43:00,
2013-02-16 13:48:00,32.6,18.5,29.94,NW,315,4.9,4.9,56,0.00,,,0.00,WUHU216HW,2013-02-16 18:48:00,
2013-02-16 13:53:00,32.8,18.7,29.94,NNW,338,4.7,5.8,56,0.00,,,0.00,WUHU216HW,2013-02-16 18:53:00,
2013-02-16 13:58:00,32.8,18.7,29.94,WNW,293,2.9,5.8,56,0.00,,,0.00,WUHU216HW,2013-02-16 18:58:00,
2013-02-16 14:03:00,32.9,18.9,29.94,NW,315,3.4,5.8,56,0.00,,,0.00,WUHU216HW,2013-02-16 19:03:00,
2013-02-16 14:08:00,33.1,19.1,29.93,NNW,338,6.3,7.6,56,0.00,,,0.00,WUHU216HW,2013-02-16 19:08:00,
2013-02-16 14:13:00,33.3,19.2,29.93,WNW,293,4.9,7.6,56,0.00,,,0.00,WUHU216HW,2013-02-16 19:13:00,
2013-02-16 14:18:00,33.7,19.5,29.93,NW,315,5.4,6.5,56,0.00,,,0.00,WUHU216HW,2013-02-16 19:18:00,
2013-02-16 14:23:00,34.0,19.9,29.93,West,270,3.8,6.3,56,0.00,,,0.00,WUHU216HW,2013-02-16 19:23:00,
2013-02-16 14:28:00,34.2,20.1,29.93,WNW,293,3.6,6.9,56,0.00,,,0.00,WUHU216HW,2013-02-16 19:28:00,
2013-02-16 14:33:00,34.2,20.1,29.93,North,0,3.6,6.9,56,0.00,,,0.00,WUHU216HW,2013-02-16 19:33:00,
2013-02-16 14:38:00,34.2,20.1,29.93,WNW,293,3.1,6.9,56,0.00,,,0.00,WUHU216HW,2013-02-16 19:38:00,
2013-02-16 14:43:00,33.3,19.2,29.93,NNE,23,1.1,6.9,56,0.00,,,0.00,WUHU216HW,2013-02-16 19:43:00,
2013-02-16 14:48:00,32.8,18.7,29.93,NNW,338,4.9,6.7,56,0.00,,,0.00,WUHU216HW,2013-02-16 19:48:00,
2013-02-16 14:53:00,32.6,19.0,29.93,NNW,338,4.5,6.3,57,0.00,,,0.00,WUHU216HW,2013-02-16 19:53:00,
2013-02-16 14:58:00,32.4,18.8,29.93,NW,315,5.6,7.4,57,0.00,,,0.00,WUHU216HW,2013-02-16 19:58:00,
2013-02-16 15:03:00,32.8,19.6,29.93,NNW,338,3.4,7.6,58,0.00,,,0.00,WUHU216HW,2013-02-16 20:03:00,
2013-02-16 15:08:00,32.6,19.5,29.93,NNW,338,2.7,7.6,58,0.00,,,0.00,WUHU216HW,2013-02-16 20:08:00,
2013-02-16 15:13:00,32.4,19.3,29.93,NW,315,3.4,6.0,58,0.00,,,0.00,WUHU216HW,2013-02-16 20:13:00,
2013-02-16 15:18:00,32.0,19.4,29.93,NNW,338,2.0,6.0,59,0.00,,,0.00,WUHU216HW,2013-02-16 20:18:00,
2013-02-16 15:23:00,32.0,19.4,29.93,WNW,293,4.7,4.9,59,0.00,,,0.00,WUHU216HW,2013-02-16 20:23:00,
2013-02-16 15:28:00,32.6,19.9,29.93,NW,315,1.8,4.7,59,0.00,,,0.00,WUHU216HW,2013-02-16 20:28:00,
2013-02-16 15:33:00,32.8,20.4,29.93,WNW,293,5.4,5.4,60,0.00,,,0.00,WUHU216HW,2013-02-16 20:33:00,
2013-02-16 15:38:00,32.8,20.4,29.93,West,270,3.4,5.4,60,0.00,,,0.00,WUHU216HW,2013-02-16 20:38:00,
2013-02-16 15:43:00,32.2,20.0,29.93,NNW,338,4.7,6.5,60,0.00,,,0.00,WUHU216HW,2013-02-16 20:43:00,
2013-02-16 15:48:00,31.7,19.4,29.93,North,0,3.6,6.5,60,0.00,,,0.00,WUHU216HW,2013-02-16 20:48:00,
2013-02-16 15:53:00,31.0,18.7,29.93,West,270,3.8,6.5,60,0.00,,,0.00,WUHU216HW,2013-02-16 20:53:00,
2013-02-16 15:58:00,30.8,18.9,29.93,NW,315,4.7,8.7,61,0.00,,,0.00,WUHU216HW,2013-02-16 20:58:00,
2013-02-16 16:03:00,30.8,18.9,29.93,NW,315,5.6,8.7,61,0.00,,,0.00,WUHU216HW,2013-02-16 21:03:00,
2013-02-16 16:08:00,30.6,18.7,29.94,NW,315,7.6,8.7,61,0.00,,,0.00,WUHU216HW,2013-02-16 21:08:00,
2013-02-16 16:13:00,30.1,18.2,29.94,WSW,248,4.5,8.3,61,0.00,,,0.00,WUHU216HW,2013-02-16 21:13:00,
2013-02-16 16:18:00,29.9,18.4,29.94,WNW,293,5.6,7.6,62,0.00,,,0.00,WUHU216HW,2013-02-16 21:18:00,
2013-02-16 16:23:00,29.5,18.1,29.94,NW,315,6.5,7.6,62,0.00,,,0.00,WUHU216HW,2013-02-16 21:23:00,
2013-02-16 16:28:00,29.3,18.3,29.94,NW,315,6.9,8.5,63,0.00,,,0.00,WUHU216HW,2013-02-16 21:28:00,
2013-02-16 16:33:00,29.3,18.3,29.94,NW,315,5.6,8.5,63,0.00,,,0.00,WUHU216HW,2013-02-16 21:33:00,
2013-02-16 16:38:00,29.2,17.7,29.94,NW,315,9.8,9.8,62,0.00,,,0.00,WUHU216HW,2013-02-16 21:38:00,
2013-02-16 16:43:00,29.2,17.7,29.94,WNW,293,8.1,9.8,62,0.00,,,0.00,WUHU216HW,2013-02-16 21:43:00,
2013-02-16 16:48:00,28.8,17.1,29.95,NW,315,12.3,12.3,61,0.00,,,0.00,WUHU216HW,2013-02-16 21:48:00,
2013-02-16 16:53:00,28.4,17.1,29.95,WNW,293,4.0,12.3,62,0.00,,,0.00,WUHU216HW,2013-02-16 21:53:00,
2013-02-16 16:58:00,28.6,17.3,29.94,NW,315,6.7,6.7,62,0.00,,,0.00,WUHU216HW,2013-02-16 21:58:00,
2013-02-16 17:03:00,28.4,17.1,29.95,NW,315,5.4,8.5,62,0.00,,,0.00,WUHU216HW,2013-02-16 22:03:00,
2013-02-16 17:08:00,28.4,17.1,29.95,WNW,293,4.7,9.2,62,0.00,,,0.00,WUHU216HW,2013-02-16 22:08:00,
2013-02-16 17:13:00,28.1,16.7,29.95,NW,315,6.5,9.2,62,0.00,,,0.00,WUHU216HW,2013-02-16 22:13:00,
2013-02-16 17:18:00,28.1,16.7,29.95,WNW,293,6.5,7.2,62,0.00,,,0.00,WUHU216HW,2013-02-16 22:18:00,
2013-02-16 17:23:00,27.9,16.6,29.95,WNW,293,6.9,8.1,62,0.00,,,0.00,WUHU216HW,2013-02-16 22:23:00,
2013-02-16 17:28:00,27.9,16.9,29.95,West,270,6.3,8.9,63,0.00,,,0.00,WUHU216HW,2013-02-16 22:28:00,
2013-02-16 17:33:00,27.7,17.1,29.95,NW,315,6.7,9.6,64,0.00,,,0.00,WUHU216HW,2013-02-16 22:33:00,
2013-02-16 17:38:00,27.7,17.1,29.95,SSW,203,2.7,9.6,64,0.00,,,0.00,WUHU216HW,2013-02-16 22:38:00,
2013-02-16 17:43:00,27.5,17.3,29.95,NNW,338,4.0,6.9,65,0.00,,,0.00,WUHU216HW,2013-02-16 22:43:00,
2013-02-16 17:48:00,27.7,17.5,29.96,NW,315,5.4,6.3,65,0.00,,,0.00,WUHU216HW,2013-02-16 22:48:00,
2013-02-16 17:53:00,27.5,17.3,29.96,WSW,248,2.5,6.3,65,0.00,,,0.00,WUHU216HW,2013-02-16 22:53:00,
2013-02-16 17:58:00,27.5,17.6,29.96,NW,315,5.8,6.3,66,0.00,,,0.00,WUHU216HW,2013-02-16 22:58:00,
2013-02-16 18:03:00,27.4,17.5,29.96,NW,315,6.7,8.7,66,0.00,,,0.00,WUHU216HW,2013-02-16 23:03:00,
2013-02-16 18:08:00,27.2,17.6,29.96,WNW,293,5.4,8.7,67,0.00,,,0.00,WUHU216HW,2013-02-16 23:08:00,
2013-02-16 18:13:00,27.0,17.5,29.96,NW,315,4.9,6.9,67,0.00,,,0.00,WUHU216HW,2013-02-16 23:13:00,
2013-02-16 18:18:00,26.6,17.5,29.96,NW,315,4.5,6.9,68,0.00,,,0.00,WUHU216HW,2013-02-16 23:18:00,
2013-02-16 18:23:00,26.3,17.8,29.96,West,270,5.4,6.9,70,0.00,,,0.00,WUHU216HW,2013-02-16 23:23:00,
2013-02-16 18:28:00,26.3,17.8,29.96,NNW,338,4.3,6.9,70,0.00,,,0.00,WUHU216HW,2013-02-16 23:28:00,
2013-02-16 18:33:00,26.1,17.6,29.96,NW,315,5.1,5.4,70,0.00,,,0.00,WUHU216HW,2013-02-16 23:33:00,
2013-02-16 18:38:00,25.9,18.1,29.96,WSW,248,8.1,10.7,72,0.00,,,0.00,WUHU216HW,2013-02-16 23:38:00,
2013-02-16 18:43:00,25.7,17.6,29.97,WNW,293,4.3,10.7,71,0.00,,,0.00,WUHU216HW,2013-02-16 23:43:00,
2013-02-16 18:48:00,25.6,17.5,29.97,WNW,293,2.0,7.4,71,0.00,,,0.00,WUHU216HW,2013-02-16 23:48:00,
2013-02-16 18:53:00,25.4,17.3,29.97,NNW,338,2.2,4.9,71,0.00,,,0.00,WUHU216HW,2013-02-16 23:53:00,
2013-02-16 18:58:00,25.2,17.1,29.97,NW,315,2.9,4.9,71,0.00,,,0.00,WUHU216HW,2013-02-16 23:58:00,
2013-02-16 19:03:00,25.2,17.1,29.97,North,0,1.1,3.8,71,0.00,,,0.00,WUHU216HW,2013-02-17 00:03:00,
2013-02-16 19:08:00,25.0,16.9,29.97,NW,315,1.6,3.8,71,0.00,,,0.00,WUHU216HW,2013-02-17 00:08:00,
2013-02-16 19:13:00,24.8,16.4,29.96,NNW,338,1.1,2.2,70,0.00,,,0.00,WUHU216HW,2013-02-17 00:13:00,
2013-02-16 19:18:00,24.7,16.2,29.97,WNW,293,1.8,1.8,70,0.00,,,0.00,WUHU216HW,2013-02-17 00:18:00,
2013-02-16 19:23:00,24.5,16.0,29.97,WSW,248,0.0,1.8,70,0.00,,,0.00,WUHU216HW,2013-02-17 00:23:00,
2013-02-16 19:28:00,24.5,16.0,29.96,WNW,293,0.2,1.1,70,0.00,,,0.00,WUHU216HW,2013-02-17 00:28:00,
2013-02-16 19:33:00,24.3,15.9,29.96,WSW,248,0.0,2.2,70,0.00,,,0.00,WUHU216HW,2013-02-17 00:33:00,
2013-02-16 19:38:00,24.3,15.9,29.97,NW,315,1.3,2.2,70,0.00,,,0.00,WUHU216HW,2013-02-17 00:38:00,
2013-02-16 19:43:00,24.3,15.9,29.96,NNW,338,0.4,1.8,70,0.00,,,0.00,WUHU216HW,2013-02-17 00:43:00,
2013-02-16 19:48:00,24.3,15.9,29.96,NW,315,1.1,1.8,70,0.00,,,0.00,WUHU216HW,2013-02-17 00:48:00,
2013-02-16 19:53:00,24.3,15.6,29.96,NW,315,1.8,1.8,69,0.00,,,0.00,WUHU216HW,2013-02-17 00:53:00,
2013-02-16 19:58:00,24.1,15.4,29.96,NW,315,2.0,2.7,69,0.00,,,0.00,WUHU216HW,2013-02-17 00:58:00,
2013-02-16 20:03:00,24.1,15.4,29.96,NW,315,1.3,2.7,69,0.00,,,0.00,WUHU216HW,2013-02-17 01:03:00,
2013-02-16 20:08:00,23.9,14.9,29.96,NW,315,1.1,2.5,68,0.00,,,0.00,WUHU216HW,2013-02-17 01:08:00,
2013-02-16 20:13:00,23.8,14.7,29.96,WNW,293,2.0,3.4,68,0.00,,,0.00,WUHU216HW,2013-02-17 01:13:00,
2013-02-16 20:18:00,23.6,14.2,29.96,NW,315,2.2,3.4,67,0.00,,,0.00,WUHU216HW,2013-02-17 01:18:00,
2013-02-16 20:23:00,23.4,14.1,29.95,NW,315,1.6,2.2,67,0.00,,,0.00,WUHU216HW,2013-02-17 01:23:00,
2013-02-16 20:28:00,23.4,13.7,29.95,WNW,293,2.2,2.2,66,0.00,,,0.00,WUHU216HW,2013-02-17 01:28:00,
2013-02-16 20:33:00,23.2,13.5,29.95,West,270,3.4,3.4,66,0.00,,,0.00,WUHU216HW,2013-02-17 01:33:00,
2013-02-16 20:38:00,23.0,13.3,29.95,WNW,293,1.8,3.4,66,0.00,,,0.00,WUHU216HW,2013-02-17 01:38:00,
2013-02-16 20:43:00,22.7,13.0,29.95,WNW,293,2.7,3.4,66,0.00,,,0.00,WUHU216HW,2013-02-17 01:43:00,
2013-02-16 20:48:00,22.7,13.0,29.95,NNW,338,1.6,2.9,66,0.00,,,0.00,WUHU216HW,2013-02-17 01:48:00,
2013-02-16 20:54:00,22.5,12.8,29.95,WNW,293,2.5,2.9,66,0.00,,,0.00,WUHU216HW,2013-02-17 01:54:00,
2013-02-16 20:59:00,22.3,12.2,29.95,NW,315,1.8,3.8,65,0.00,,,0.00,WUHU216HW,2013-02-17 01:59:00,
2013-02-16 21:04:00,22.3,12.2,29.95,NW,315,3.4,3.8,65,0.00,,,0.00,WUHU216HW,2013-02-17 02:04:00,
2013-02-16 21:09:00,22.1,12.1,29.95,West,270,4.0,4.0,65,0.00,,,0.00,WUHU216HW,2013-02-17 02:09:00,
2013-02-16 21:14:00,22.0,12.0,29.95,NW,315,3.1,4.0,65,0.00,,,0.00,WUHU216HW,2013-02-17 02:14:00,
2013-02-16 21:19:00,22.0,12.0,29.94,NW,315,2.2,3.1,65,0.00,,,0.00,WUHU216HW,2013-02-17 02:19:00,
2013-02-16 21:24:00,21.8,11.8,29.94,NW,315,1.6,2.9,65,0.00,,,0.00,WUHU216HW,2013-02-17 02:24:00,
2013-02-16 21:29:00,21.6,11.6,29.94,WNW,293,0.4,2.9,65,0.00,,,0.00,WUHU216HW,2013-02-17 02:29:00,
2013-02-16 21:34:00,21.6,11.6,29.94,NW,315,2.2,2.9,65,0.00,,,0.00,WUHU216HW,2013-02-17 02:34:00,
2013-02-16 21:39:00,21.4,11.4,29.94,NW,315,0.7,2.5,65,0.00,,,0.00,WUHU216HW,2013-02-17 02:39:00,
2013-02-16 21:44:00,21.2,11.3,29.94,NW,315,0.4,2.0,65,0.00,,,0.00,WUHU216HW,2013-02-17 02:44:00,
2013-02-16 21:49:00,21.2,11.3,29.94,WNW,293,0.4,1.1,65,0.00,,,0.00,WUHU216HW,2013-02-17 02:49:00,
2013-02-16 21:54:00,21.2,11.3,29.93,WSW,248,0.4,1.1,65,0.00,,,0.00,WUHU216HW,2013-02-17 02:54:00,
2013-02-16 21:59:00,20.9,10.9,29.93,SW,225,0.4,1.1,65,0.00,,,0.00,WUHU216HW,2013-02-17 02:59:00,
2013-02-16 22:04:00,20.7,10.7,29.93,West,270,0.0,0.7,65,0.00,,,0.00,WUHU216HW,2013-02-17 03:04:00,
2013-02-16 22:09:00,20.5,10.9,29.93,West,270,2.0,2.0,66,0.00,,,0.00,WUHU216HW,2013-02-17 03:09:00,
2013-02-16 22:14:00,20.3,10.7,29.93,WNW,293,1.8,2.9,66,0.00,,,0.00,WUHU216HW,2013-02-17 03:14:00,
2013-02-16 22:19:00,20.3,10.7,29.93,NW,315,0.7,2.9,66,0.00,,,0.00,WUHU216HW,2013-02-17 03:19:00,
2013-02-16 22:24:00,20.3,11.1,29.92,WNW,293,0.7,2.5,67,0.00,,,0.00,WUHU216HW,2013-02-17 03:24:00,
2013-02-16 22:29:00,20.2,10.9,29.92,SW,225,0.7,1.8,67,0.00,,,0.00,WUHU216HW,2013-02-17 03:29:00,
2013-02-16 22:34:00,20.0,10.7,29.92,SW,225,0.9,1.1,67,0.00,,,0.00,WUHU216HW,2013-02-17 03:34:00,
2013-02-16 22:39:00,19.8,10.5,29.92,SSW,203,0.4,1.1,67,0.00,,,0.00,WUHU216HW,2013-02-17 03:39:00,
2013-02-16 22:44:00,19.6,10.6,29.92,South,180,0.0,1.1,68,0.00,,,0.00,WUHU216HW,2013-02-17 03:44:00,
2013-02-16 22:49:00,19.6,11.0,29.92,SSE,158,0.0,0.2,69,0.00,,,0.00,WUHU216HW,2013-02-17 03:49:00,
2013-02-16 22:54:00,19.4,10.8,29.92,SSW,203,0.4,1.1,69,0.00,,,0.00,WUHU216HW,2013-02-17 03:54:00,
2013-02-16 22:59:00,19.6,11.0,29.91,WSW,248,0.9,1.8,69,0.00,,,0.00,WUHU216HW,2013-02-17 03:59:00,
2013-02-16 23:04:00,19.6,11.3,29.91,SW,225,0.4,1.8,70,0.00,,,0.00,WUHU216HW,2013-02-17 04:04:00,
2013-02-16 23:09:00,19.8,11.5,29.91,WSW,248,0.4,1.1,70,0.00,,,0.00,WUHU216HW,2013-02-17 04:09:00,
2013-02-16 23:14:00,19.8,11.5,29.91,South,180,0.0,1.1,70,0.00,,,0.00,WUHU216HW,2013-02-17 04:14:00,
2013-02-16 23:19:00,20.0,12.0,29.91,South,180,0.9,1.3,71,0.00,,,0.00,WUHU216HW,2013-02-17 04:19:00,
2013-02-16 23:24:00,20.2,12.2,29.91,SSE,158,1.3,1.3,71,0.00,,,0.00,WUHU216HW,2013-02-17 04:24:00,
2013-02-16 23:29:00,20.2,12.2,29.90,South,180,2.0,3.1,71,0.00,,,0.00,WUHU216HW,2013-02-17 04:29:00,
2013-02-16 23:34:00,20.0,12.0,29.91,SSE,158,1.8,3.4,71,0.00,,,0.00,WUHU216HW,2013-02-17 04:34:00,
2013-02-16 23:39:00,19.8,11.8,29.90,South,180,2.7,3.6,71,0.00,,,0.00,WUHU216HW,2013-02-17 04:39:00,
2013-02-16 23:44:00,19.8,11.8,29.90,SSE,158,3.4,3.6,71,0.00,,,0.00,WUHU216HW,2013-02-17 04:44:00,
2013-02-16 23:49:00,19.6,12.0,29.90,SSW,203,1.6,3.4,72,0.00,,,0.00,WUHU216HW,2013-02-17 04:49:00,
2013-02-16 23:54:00,19.8,12.2,29.89,WSW,248,1.6,3.4,72,0.00,,,0.00,WUHU216HW,2013-02-17 04:54:00,
2013-02-16 23:59:00,19.8,12.2,29.89,SW,225,1.6,2.5,72,0.00,,,0.00,WUHU216HW,2013-02-17 04:59:00,